Regional Weather Roundup
Issued by NWS Newport/Morehead, NC

Home | Current Version | Previous Version | Text Only | Print | Product List | Glossary On
Versions: 1 2 3 4 5 6 7 8 9 10 11 12 13 14 15 16 17 18 19 20 21 22 23 24 25 26 27 28 29 30 31 32 33 34 35 36 37 38 39 40 41 42 43 44 45 46 47 48 49 50
373
ASUS42 KMHX 160925
RWRMHX
WEATHER ROUNDUP FOR EASTERN NORTH CAROLINA
NATIONAL WEATHER SERVICE NEWPORT/MOREHEAD CITY NC
500 AM EDT THU AUG 16 2018

NOTE: "FAIR" INDICATES FEW OR NO CLOUDS BELOW 12,000 FEET
WITH NO SIGNIFICANT WEATHER AND/OR OBSTRUCTIONS TO VISIBILITY

NCZ015>017-031-032-045>047-102-103-161000-
NORTH COAST

CITY           SKY/WX    TMP DP  RH WIND       PRES   REMARKS
EDENTON        FAIR      75  73  93 CALM      30.09S
ELIZABETH CITY FAIR      76  73  91 CALM      30.08R
KITTY HAWK     FAIR      76  75  96 CALM      30.07S
MANTEO         FAIR      77  74  89 W3        30.09R

$$

NCZ045>047-081-094-103-104-161000-
CENTRAL COAST

CITY           SKY/WX    TMP DP  RH WIND       PRES   REMARKS
FRISCO         FAIR      80  77  90 SW3       30.09S

$$

NCZ095-097-098-100-101-161000-
SOUTHERN COAST

CITY           SKY/WX    TMP DP  RH WIND       PRES   REMARKS
BEAUFORT       FAIR      78  77  96 SW6       30.09R THUNDER
CEDAR ISLAND   NOT AVBL
JACKSONVILLE   FAIR      76  74  93 SW3       30.09R
PINEY ISLAND   NOT AVBL
WILMINGTON     FAIR      77  74  90 W6        30.10S


$$

NCZ011>013-027>030-043-044-078>080-089-090>093-098-161000-
COASTAL PLAIN

CITY           SKY/WX    TMP DP  RH WIND       PRES   REMARKS
AHOSKIE        FAIR      68  68 100 CALM      30.09S FOG
CLINTON        FAIR      74  74 100 CALM      30.10R
ELIZABETHTOWN  FAIR      75  73  96 SW7       30.10S
GOLDSBORO      FAIR      74  72  93 CALM      30.07S
GREENVILLE     FAIR      73  72  94 CALM      30.10S
HAVELOCK       FAIR      73  73 100 SW3       30.10R
KENANSVILLE    FAIR      73  72  94 CALM      30.10S FOG
KINSTON        FAIR      74  72  95 S5        30.10R
NEW BERN       FAIR      71  71 100 W3        30.10S
RICHLANDS      CLOUDY    74  73  97 CALM      30.10S
ROCKY MOUNT    FOG       71  71 100 CALM      30.09S VSB 3/4
WASHINGTON     FAIR      72  70  93 CALM      30.09S
WHITEVILLE     FAIR      74  73  96 CALM      30.10S

$$

AMZ130-135-150-152-154-156-158-170-250-252-270-ANZ085-086-088-633-658-670-161000-
MARINE OBSERVATIONS

STATION/POSITION TIME  TEMP    WIND        PRES    WAVE   SWELL
                       AIR SEA DIR/SP/G            HT/PER HT/PER
                 (UTC) (F)     (DEG/KT/KT) (MB)    (FT/S) (FT/S)
CHESAPEAKE LIGHT NOT AVBL
64 E VA BEACH    0850   81 81  290/  8/  8 1018.9    2/ 7   2/ 7
DUCK             0854   81 71  260/  6/  8 1018.2
2 E DUCK         0900      80                N/A     1/ 8
OREGON INLET     0848   80 84  240/  5/  6 1018.5
13E OREGON INLT  0848      80                N/A     2/ 5   2/ 5
HATTERAS CG      0900   78 80  210/  5/  6 1018.8
DIAMOND BUOY     0910   82 83  240/ 10/ 12 1019.4
CAPE LOOKOUT     0900          250/ 10/ 12 1019.2
BEAUFORT LAB     0854   80 85  210/  2/  4 1019.4
30 SE NEW RVR IN NOT AVBL
30 SE NEW RVR IN 0900      84                N/A     4/ 5
27 SE WRIGHTSVLE NOT AVBL
5 SE WRIGHTSVLE  0808   79 80  230/  8/ 10 1018.6
225 S CAPE HAT   0910      83  210/ 10/ 12 1021.2
41 SE CHARLESTON 0910   83 83  220/ 12/ 14 1019.9

$$




USA.gov is the U.S. government's official web portal to all federal, state and local government web resources and services.